GW4651 Weather Reports


time (UTC)temp
F
wind
direction
speed
knots
gust
knots
rain 1hr
in
rain 24hr
in
rain mn
in
humidity
%
barometer
mb
20260504000605 55 6 1.7 2.6 0.00 0.00 0.00 82 1013.7
20260504000106 55 33 2.6 4.3 0.00 0.00 0.00 82 1013.8
20260503235607 55 10 1.7 2.6 0.00 0.00 0.00 81 1013.8
20260503234605 55 7 0.9 2.6 0.00 0.00 0.00 81 1013.8
20260503234106 55 2 0.9 1.7 0.00 0.00 0.00 80 1013.8
20260503233606 55 69 0.9 1.7 0.00 0.00 0.00 79 1013.7
20260503233106 55 109 0.9 1.7 0.00 0.00 0.00 79 1013.7
20260503231606 55 267 0.0 0.9 0.00 0.00 0.00 79 1013.8
20260503230605 55 112 0.9 1.7 0.00 0.00 0.00 79 1013.9
20260503230106 55 94 0.9 2.6 0.00 0.00 0.00 79 1014.1
20260503225615 55 25 0.9 2.6 0.00 0.00 0.00 79 1014.1
20260503225106 55 41 0.9 4.3 0.00 0.00 0.00 78 1014.1
20260503224605 55 49 2.6 2.6 0.00 0.00 0.00 78 1014.0
20260503224105 56 50 2.6 4.3 0.00 0.00 0.00 78 1013.9
20260503223605 56 46 2.6 4.3 0.00 0.00 0.00 77 1013.9
20260503223106 56 28 1.7 2.6 0.00 0.00 0.00 77 1014.1
20260503222605 56 355 0.9 1.7 0.00 0.00 0.00 77 1014.0
20260503222105 56 14 1.7 2.6 0.00 0.00 0.00 76 1013.9
20260503221105 57 7 1.7 2.6 0.00 0.00 0.00 75 1013.8
20260503220605 57 314 1.7 4.3 0.00 0.00 0.00 74 1013.8
20260503220106 56 0 0.9 2.6 0.00 0.00 0.00 74 1013.7
20260503215605 57 329 1.7 2.6 0.00 0.00 0.00 74 1013.7
20260503215105 57 323 0.9 4.3 0.00 0.00 0.00 74 1013.7
20260503214606 57 301 1.7 2.6 0.00 0.00 0.00 73 1013.7
20260503214106 57 331 0.9 2.6 0.00 0.00 0.00 73 1013.7
20260503213605 57 36 1.7 4.3 0.00 0.00 0.00 73 1013.8
20260503213105 57 28 1.7 4.3 0.00 0.00 0.00 72 1013.5
20260503211605 58 19 2.6 7.0 0.00 0.00 0.00 71 1013.4
20260503211105 58 309 2.6 4.3 0.00 0.00 0.00 71 1013.4
20260503210605 58 15 2.6 4.3 0.00 0.00 0.00 70 1013.3
20260503205606 58 340 2.6 6.1 0.00 0.00 0.00 69 1013.0
20260503205106 59 330 2.6 8.7 0.00 0.00 0.00 69 1013.3
20260503204605 59 298 5.2 10.4 0.00 0.00 0.00 68 1013.1
20260503204105 59 310 2.6 8.7 0.00 0.00 0.00 68 1013.0
20260503203605 59 318 4.3 10.4 0.00 0.00 0.00 67 1013.0
20260503203106 59 328 4.3 10.4 0.00 0.00 0.00 67 1012.6
20260503202605 60 303 6.1 10.4 0.00 0.00 0.00 66 1012.7
20260503202105 60 330 5.2 10.4 0.00 0.00 0.00 66 1012.7
20260503201606 60 322 5.2 11.3 0.00 0.00 0.00 65 1012.5
20260503200605 61 308 4.3 7.8 0.00 0.00 0.00 65 1012.2
20260503200105 61 339 2.6 7.0 0.00 0.00 0.00 65 1012.1
20260503195606 61 17 2.6 7.0 0.00 0.00 0.00 65 1011.9
20260503194605 61 310 5.2 11.3 0.00 0.00 0.00 64 1011.9
20260503194105 61 291 3.5 7.8 0.00 0.00 0.00 63 1011.7
20260503193605 62 300 3.5 7.8 0.00 0.00 0.00 63 1011.5
20260503192605 62 317 4.3 8.7 0.00 0.00 0.00 62 1011.3
20260503192106 62 324 2.6 7.8 0.00 0.00 0.00 62 1011.2
20260503191605 62 308 6.1 10.4 0.00 0.00 0.00 61 1010.9
20260503191105 63 348 3.5 8.7 0.00 0.00 0.00 61 1011.0
20260503190606 63 315 6.1 12.2 0.00 0.00 0.00 59 1010.8
20260503190105 64 297 4.3 10.4 0.00 0.00 0.00 59 1010.7
20260503184605 64 275 4.3 11.3 0.00 0.00 0.00 66 1010.3
20260503183106 64 254 4.3 7.0 0.00 0.00 0.00 67 1010.3
20260503182605 64 283 1.7 5.2 0.00 0.00 0.00 66 1010.1
20260503182106 65 282 3.5 6.1 0.00 0.00 0.00 65 1010.2
20260503181608 65 281 4.3 7.0 0.00 0.00 0.00 65 1010.3
20260503181106 65 246 4.3 8.7 0.00 0.00 0.00 65 1010.1
20260503180605 65 234 5.2 7.8 0.00 0.00 0.00 64 1010.1
20260503180105 65 231 4.3 7.8 0.00 0.00 0.00 64 1010.1
20260503175605 65 217 6.1 10.4 0.00 0.00 0.00 63 1009.9
20260503175105 66 205 4.3 11.3 0.00 0.00 0.00 62 1009.9
20260503174606 66 207 4.3 11.3 0.00 0.00 0.00 62 1010.0
20260503173105 65 200 5.2 8.7 0.00 0.00 0.00 62 1010.0
20260503172605 65 223 5.2 7.8 0.00 0.00 0.00 63 1009.9
20260503172104 65 221 4.3 5.2 0.00 0.00 0.00 63 1010.1
20260503171605 65 196 5.2 8.7 0.00 0.00 0.00 63 1010.1
20260503171104 65 206 4.3 7.8 0.00 0.00 0.00 63 1010.0
20260503170605 65 251 2.6 5.2 0.00 0.00 0.00 64 1010.1
20260503160105 65 318 4.3 7.8 0.00 0.00 0.00 64 1010.2
20260503150605 65 336 5.2 8.7 0.00 0.00 0.00 63 1010.4
20260503150104 65 323 3.5 7.0 0.00 0.00 0.00 62 1010.4
20260503140106 66 277 3.5 6.1 0.00 0.00 0.00 60 1010.7
20260503130605 68 241 8.7 17.4 0.00 0.00 0.00 49 1010.9
20260503130105 68 230 7.0 13.9 0.00 0.00 0.00 52 1010.7
20260503120106 67 190 10.4 18.2 0.00 0.00 0.00 52 1011.1
20260503110604 67 215 7.8 15.6 0.00 0.00 0.00 54 1011.9
20260503100104 64 202 10.4 15.6 0.00 0.00 0.00 65 1012.7
20260503090105 61 206 9.6 13.9 0.00 0.00 0.00 74 1012.9
20260503081604 59 250 5.2 7.0 0.00 0.00 0.00 83 1013.6
20260503081106 60 235 3.5 4.3 0.00 0.00 0.00 83 1013.5
20260503080604 59 210 2.6 5.2 0.00 0.00 0.00 84 1013.5
20260503080104 59 209 2.6 6.1 0.00 0.00 0.00 84 1013.6
20260503072604 58 219 0.9 4.3 0.00 0.00 0.00 88 1013.8
20260503072104 58 275 1.7 4.3 0.00 0.00 0.00 87 1013.6
20260503071604 58 237 2.6 4.3 0.00 0.00 0.00 86 1013.7
20260503070606 58 195 1.7 4.3 0.00 0.00 0.00 86 1013.7
20260503070104 58 211 1.7 4.3 0.00 0.00 0.00 86 1013.5
20260503060106 56 153 1.7 2.6 0.00 0.00 0.00 91 1013.5
20260503055107 56 354 1.7 4.3 0.00 0.00 0.00 90 1013.6
20260503054107 56 8 0.9 1.7 0.00 0.00 0.00 90 1013.6
20260503052606 56 315 1.7 2.6 0.00 0.00 0.00 88 1013.5
20260503052106 56 304 1.7 2.6 0.00 0.00 0.00 88 1013.5
20260503051606 56 61 1.7 4.3 0.00 0.00 0.00 88 1013.6
20260503051106 56 44 3.5 5.2 0.00 0.00 0.00 87 1013.7
20260503050607 56 308 0.9 1.7 0.00 0.00 0.00 87 1013.6
20260503050106 57 268 1.7 4.3 0.00 0.00 0.00 86 1013.4
20260503045606 57 223 1.7 4.3 0.00 0.00 0.00 86 1013.3
20260503044606 56 56 0.0 2.6 0.00 0.00 0.00 86 1013.3
20260503044105 56 91 1.7 4.3 0.00 0.00 0.00 86 1013.2
20260503043607 56 79 1.7 2.6 0.00 0.00 0.00 86 1013.6
20260503043106 57 223 0.9 2.6 0.00 0.00 0.00 85 1013.6
20260503042606 57 276 1.7 2.6 0.00 0.00 0.00 85 1013.4
20260503042106 56 201 0.9 2.6 0.00 0.00 0.00 86 1013.3
20260503041607 56 106 1.7 5.2 0.00 0.00 0.00 86 1013.4
20260503040606 57 318 2.6 4.3 0.00 0.00 0.00 83 1013.7
20260503035607 57 161 5.2 7.8 0.00 0.00 0.00 82 1013.1
20260503035106 57 133 4.3 7.0 0.00 0.00 0.00 81 1013.3
20260503034605 57 157 2.6 5.2 0.00 0.00 0.00 81 1013.2
20260503034105 57 121 2.6 4.3 0.00 0.00 0.00 82 1013.6
20260503033607 57 144 1.7 2.6 0.00 0.00 0.00 82 1013.5
20260503033105 57 179 2.6 4.3 0.00 0.00 0.00 81 1013.6
20260503032606 57 187 1.7 1.7 0.00 0.00 0.00 82 1013.8
20260503031607 57 150 0.9 4.3 0.00 0.00 0.00 81 1013.7
20260503031106 57 135 1.7 4.3 0.00 0.00 0.00 82 1013.7
20260503030606 57 159 2.6 5.2 0.00 0.00 0.00 82 1013.7
20260503030106 57 171 2.6 4.3 0.00 0.00 0.00 81 1013.6
20260503025605 57 154 0.0 1.7 0.00 0.00 0.00 82 1013.8
20260503024105 57 71 1.7 2.6 0.00 0.00 0.00 82 1013.6
20260503023606 57 53 0.9 1.7 0.00 0.00 0.00 82 1013.7
20260503023105 57 35 1.7 4.3 0.00 0.00 0.00 81 1013.5
20260503022607 57 81 2.6 4.3 0.00 0.00 0.00 82 1013.6
20260503022106 58 74 2.6 4.3 0.00 0.00 0.00 83 1013.7
20260503021605 58 321 1.7 2.6 0.00 0.00 0.00 81 1013.9
20260503021106 58 60 0.9 2.6 0.00 0.00 0.00 79 1013.5
20260503020605 58 123 1.7 2.6 0.00 0.00 0.00 80 1013.7
20260503020107 58 153 0.9 1.7 0.00 0.00 0.00 80 1013.9
20260503015605 58 165 0.9 4.3 0.00 0.00 0.00 81 1013.9
20260503015106 58 131 0.9 1.7 0.00 0.00 0.00 81 1013.7
20260503014105 58 184 1.7 2.6 0.00 0.00 0.00 81 1014.0
20260503013605 58 164 1.7 1.7 0.00 0.00 0.00 81 1014.0
20260503013106 58 176 1.7 2.6 0.00 0.00 0.00 81 1014.0
20260503012607 58 204 1.7 4.3 0.00 0.00 0.00 81 1013.9
20260503012106 58 181 2.6 5.2 0.00 0.00 0.00 81 1013.9
20260503011605 58 164 2.6 5.2 0.00 0.00 0.00 81 1013.9
20260503011106 58 125 1.7 2.6 0.00 0.00 0.00 81 1014.2
20260503010606 58 155 2.6 5.2 0.00 0.00 0.00 81 1014.2
20260503010105 58 161 2.6 6.1 0.00 0.00 0.00 81 1014.4
20260503005605 58 157 2.6 4.3 0.00 0.00 0.00 81 1014.3
20260503005106 59 135 1.7 6.1 0.00 0.00 0.00 81 1014.4
20260503004606 58 133 1.7 4.3 0.00 0.00 0.00 82 1014.4
20260503004105 58 143 2.6 6.1 0.00 0.00 0.00 82 1014.5
20260503003606 58 164 2.6 5.2 0.00 0.00 0.00 82 1014.6
20260503003105 58 154 2.6 4.3 0.00 0.00 0.00 82 1014.6
20260503002605 58 176 1.7 4.3 0.00 0.00 0.00 82 1014.5
20260503002105 58 165 0.9 4.3 0.00 0.00 0.00 82 1014.5
20260503001606 59 176 2.6 6.1 0.00 0.00 0.00 82 1014.5